Time,TemperatureF,DewpointF,PressureIn,WindDirection,WindDirectionDegrees,WindSpeedMPH,WindSpeedGustMPH,Humidity,HourlyPrecipIn,Conditions,Clouds,dailyrainin,SoftwareType,DateUTC
2013-05-31 00:02:00,64.3,60.0,29.85,ESE,122,2.0,5.0,86,0.00,,,0.00,Wunderground v.1.15,2013-05-31 07:02:00,
2013-05-31 00:07:00,64.3,60.0,29.86,SE,128,2.0,5.0,86,0.00,,,0.00,Wunderground v.1.15,2013-05-31 07:07:00,
2013-05-31 00:12:00,64.4,60.1,29.86,SE,135,1.0,1.0,86,0.00,,,0.00,Wunderground v.1.15,2013-05-31 07:12:00,
2013-05-31 00:22:00,64.5,59.9,29.86,SE,132,2.0,3.0,85,0.00,,,0.00,Wunderground v.1.15,2013-05-31 07:22:00,
2013-05-31 00:27:00,64.5,59.9,29.86,SSE,165,2.0,3.0,85,0.00,,,0.00,Wunderground v.1.15,2013-05-31 07:27:00,
2013-05-31 00:32:00,64.5,59.9,29.86,SE,127,2.0,2.0,85,0.00,,,0.00,Wunderground v.1.15,2013-05-31 07:32:00,
2013-05-31 00:37:00,64.5,59.9,29.86,SE,144,2.0,2.0,85,0.00,,,0.00,Wunderground v.1.15,2013-05-31 07:37:00,
2013-05-31 00:47:00,64.5,59.9,29.85,East,90,1.0,3.0,85,0.00,,,0.00,Wunderground v.1.15,2013-05-31 07:47:00,
2013-05-31 00:57:00,64.6,60.0,29.86,SSE,166,2.0,2.0,85,0.00,,,0.00,Wunderground v.1.15,2013-05-31 07:57:00,
2013-05-31 01:02:00,64.6,60.0,29.85,SSE,167,2.0,2.0,85,0.00,,,0.00,Wunderground v.1.15,2013-05-31 08:02:00,
2013-05-31 01:07:00,64.6,60.0,29.85,SSW,192,3.0,3.0,85,0.00,,,0.00,Wunderground v.1.15,2013-05-31 08:07:00,
2013-05-31 01:12:00,64.5,59.9,29.85,SSE,154,3.0,3.0,85,0.00,,,0.00,Wunderground v.1.15,2013-05-31 08:12:00,
2013-05-31 01:22:00,64.4,59.8,29.85,South,178,2.0,5.0,85,0.00,,,0.00,Wunderground v.1.15,2013-05-31 08:22:00,
2013-05-31 01:27:00,64.3,59.7,29.85,SSE,159,3.0,5.0,85,0.00,,,0.00,Wunderground v.1.15,2013-05-31 08:27:00,
2013-05-31 01:32:00,64.3,59.7,29.85,SSE,154,2.0,2.0,85,0.00,,,0.00,Wunderground v.1.15,2013-05-31 08:32:00,
2013-05-31 01:37:00,64.2,59.6,29.85,SSE,150,1.0,2.0,85,0.00,,,0.00,Wunderground v.1.15,2013-05-31 08:37:00,
2013-05-31 01:47:00,64.3,59.7,29.86,South,191,0.0,2.0,85,0.00,,,0.00,Wunderground v.1.15,2013-05-31 08:47:00,
2013-05-31 01:52:00,64.3,59.4,29.85,SW,215,1.0,2.0,84,0.00,,,0.00,Wunderground v.1.15,2013-05-31 08:52:00,
2013-05-31 02:02:00,64.2,59.6,29.85,SW,220,3.0,3.0,85,0.00,,,0.00,Wunderground v.1.15,2013-05-31 09:02:00,
2013-05-31 02:12:00,64.2,59.3,29.85,South,183,2.0,3.0,84,0.00,,,0.00,Wunderground v.1.15,2013-05-31 09:12:00,
2013-05-31 02:22:00,63.9,59.0,29.85,SSW,196,3.0,5.0,84,0.00,,,0.00,Wunderground v.1.15,2013-05-31 09:22:00,
2013-05-31 02:32:00,63.8,59.2,29.85,SSE,158,3.0,3.0,85,0.00,,,0.00,Wunderground v.1.15,2013-05-31 09:32:00,
2013-05-31 02:37:00,63.8,59.2,29.85,South,174,3.0,5.0,85,0.00,,,0.00,Wunderground v.1.15,2013-05-31 09:37:00,
2013-05-31 02:47:00,63.6,58.7,29.85,SSE,158,3.0,4.0,84,0.00,,,0.00,Wunderground v.1.15,2013-05-31 09:47:00,
2013-05-31 02:52:00,63.6,58.7,29.85,SSE,156,3.0,3.0,84,0.00,,,0.00,Wunderground v.1.15,2013-05-31 09:52:00,
2013-05-31 02:57:00,63.5,58.6,29.85,SSW,210,3.0,5.0,84,0.00,,,0.00,Wunderground v.1.15,2013-05-31 09:57:00,
2013-05-31 03:02:00,63.5,58.6,29.85,SSE,155,3.0,3.0,84,0.00,,,0.00,Wunderground v.1.15,2013-05-31 10:02:00,
2013-05-31 03:07:00,63.4,58.8,29.85,South,175,3.0,3.0,85,0.00,,,0.00,Wunderground v.1.15,2013-05-31 10:07:00,
2013-05-31 03:17:00,63.3,58.7,29.85,South,182,2.0,2.0,85,0.00,,,0.00,Wunderground v.1.15,2013-05-31 10:17:00,
2013-05-31 03:22:00,63.3,58.7,29.85,South,170,2.0,2.0,85,0.00,,,0.00,Wunderground v.1.15,2013-05-31 10:22:00,
2013-05-31 03:32:00,63.2,58.6,29.85,South,170,2.0,2.0,85,0.00,,,0.00,Wunderground v.1.15,2013-05-31 10:32:00,
2013-05-31 03:37:00,63.2,58.6,29.85,South,171,2.0,2.0,85,0.00,,,0.00,Wunderground v.1.15,2013-05-31 10:37:00,
2013-05-31 03:47:00,63.2,58.9,29.84,South,170,1.0,1.0,86,0.00,,,0.00,Wunderground v.1.15,2013-05-31 10:47:00,
2013-05-31 03:52:00,63.2,58.9,29.84,South,171,1.0,1.0,86,0.00,,,0.00,Wunderground v.1.15,2013-05-31 10:52:00,
2013-05-31 04:02:00,63.2,58.9,29.84,South,171,1.0,1.0,86,0.00,,,0.00,Wunderground v.1.15,2013-05-31 11:02:00,
2013-05-31 04:07:00,63.2,58.9,29.84,South,171,0.0,1.0,86,0.00,,,0.00,Wunderground v.1.15,2013-05-31 11:07:00,
2013-05-31 04:17:00,63.1,58.8,29.84,South,171,1.0,2.0,86,0.00,,,0.00,Wunderground v.1.15,2013-05-31 11:17:00,
2013-05-31 04:22:00,63.2,58.9,29.84,South,182,2.0,2.0,86,0.00,,,0.00,Wunderground v.1.15,2013-05-31 11:22:00,
2013-05-31 04:27:00,63.1,58.5,29.84,South,183,2.0,2.0,85,0.00,,,0.00,Wunderground v.1.15,2013-05-31 11:27:00,
2013-05-31 04:37:00,63.1,58.8,29.84,ENE,71,1.0,1.0,86,0.00,,,0.00,Wunderground v.1.15,2013-05-31 11:37:00,
2013-05-31 04:47:00,63.1,58.8,29.84,ENE,65,2.0,2.0,86,0.00,,,0.00,Wunderground v.1.15,2013-05-31 11:47:00,
2013-05-31 04:57:00,63.0,58.7,29.84,NE,50,1.0,2.0,86,0.00,,,0.00,Wunderground v.1.15,2013-05-31 11:57:00,
2013-05-31 05:07:00,63.0,58.7,29.85,NE,50,0.0,1.0,86,0.00,,,0.00,Wunderground v.1.15,2013-05-31 12:07:00,
2013-05-31 05:12:00,63.0,58.7,29.84,NE,50,0.0,0.0,86,0.00,,,0.00,Wunderground v.1.15,2013-05-31 12:12:00,
2013-05-31 05:17:00,63.0,58.7,29.85,NE,50,0.0,2.0,86,0.00,,,0.00,Wunderground v.1.15,2013-05-31 12:17:00,
2013-05-31 05:22:00,63.1,58.8,29.85,NE,50,1.0,1.0,86,0.00,,,0.00,Wunderground v.1.15,2013-05-31 12:22:00,
2013-05-31 05:27:00,63.1,58.5,29.85,North,5,1.0,1.0,85,0.00,,,0.00,Wunderground v.1.15,2013-05-31 12:27:00,
2013-05-31 05:37:00,63.1,58.8,29.85,North,5,1.0,1.0,86,0.00,,,0.00,Wunderground v.1.15,2013-05-31 12:37:00,
2013-05-31 05:42:00,63.2,58.9,29.86,North,5,1.0,2.0,86,0.00,,,0.00,Wunderground v.1.15,2013-05-31 12:42:00,
2013-05-31 05:47:00,63.2,58.9,29.86,North,5,1.0,2.0,86,0.00,,,0.00,Wunderground v.1.15,2013-05-31 12:47:00,
2013-05-31 05:52:00,63.2,58.9,29.86,North,5,1.0,2.0,86,0.00,,,0.00,Wunderground v.1.15,2013-05-31 12:52:00,
2013-05-31 05:57:00,63.2,58.9,29.86,North,355,1.0,2.0,86,0.00,,,0.00,Wunderground v.1.15,2013-05-31 12:57:00,
2013-05-31 06:07:00,63.1,58.8,29.86,North,355,1.0,1.0,86,0.00,,,0.00,Wunderground v.1.15,2013-05-31 13:07:00,
2013-05-31 06:17:00,63.2,58.6,29.86,South,173,2.0,2.0,85,0.00,,,0.00,Wunderground v.1.15,2013-05-31 13:17:00,
2013-05-31 06:27:00,63.2,58.9,29.87,South,172,2.0,4.0,86,0.00,,,0.00,Wunderground v.1.15,2013-05-31 13:27:00,
2013-05-31 06:32:00,63.2,58.9,29.87,South,174,1.0,2.0,86,0.00,,,0.00,Wunderground v.1.15,2013-05-31 13:32:00,
2013-05-31 06:42:00,63.4,58.8,29.87,SSE,157,1.0,1.0,85,0.00,,,0.00,Wunderground v.1.15,2013-05-31 13:42:00,
2013-05-31 06:47:00,63.4,58.8,29.87,SSE,152,1.0,1.0,85,0.00,,,0.00,Wunderground v.1.15,2013-05-31 13:47:00,
2013-05-31 06:57:00,63.5,58.9,29.88,SW,215,1.0,1.0,85,0.00,,,0.00,Wunderground v.1.15,2013-05-31 13:57:00,
2013-05-31 07:07:00,63.6,59.0,29.87,SW,215,0.0,0.0,85,0.00,,,0.00,Wunderground v.1.15,2013-05-31 14:07:00,
2013-05-31 07:12:00,63.6,59.0,29.87,SSW,206,0.0,0.0,85,0.00,,,0.00,Wunderground v.1.15,2013-05-31 14:12:00,
2013-05-31 07:17:00,63.6,59.0,29.88,SW,228,1.0,1.0,85,0.00,,,0.00,Wunderground v.1.15,2013-05-31 14:17:00,
2013-05-31 07:22:00,63.6,59.0,29.88,SW,222,2.0,2.0,85,0.00,,,0.00,Wunderground v.1.15,2013-05-31 14:22:00,
2013-05-31 07:27:00,63.7,59.1,29.88,SW,222,1.0,2.0,85,0.00,,,0.00,Wunderground v.1.15,2013-05-31 14:27:00,
2013-05-31 07:37:00,63.8,58.9,29.88,SW,234,1.0,1.0,84,0.00,,,0.00,Wunderground v.1.15,2013-05-31 14:37:00,
2013-05-31 07:47:00,63.8,58.9,29.88,South,183,2.0,2.0,84,0.00,,,0.00,Wunderground v.1.15,2013-05-31 14:47:00,
2013-05-31 07:52:00,63.8,58.9,29.88,ESE,111,2.0,2.0,84,0.00,,,0.00,Wunderground v.1.15,2013-05-31 14:52:00,
2013-05-31 07:57:00,63.9,59.0,29.88,SE,127,2.0,2.0,84,0.00,,,0.00,Wunderground v.1.15,2013-05-31 14:57:00,
2013-05-31 08:07:00,64.2,58.9,29.89,SSE,157,1.0,1.0,83,0.00,,,0.00,Wunderground v.1.15,2013-05-31 15:07:00,
2013-05-31 08:12:00,64.3,59.0,29.89,SSE,157,0.0,2.0,83,0.00,,,0.00,Wunderground v.1.15,2013-05-31 15:12:00,
2013-05-31 08:17:00,64.4,59.1,29.89,WSW,248,1.0,2.0,83,0.00,,,0.00,Wunderground v.1.15,2013-05-31 15:17:00,
2013-05-31 08:22:00,64.4,59.1,29.89,SSW,195,2.0,2.0,83,0.00,,,0.00,Wunderground v.1.15,2013-05-31 15:22:00,
2013-05-31 08:32:00,64.6,59.0,29.89,East,86,1.0,1.0,82,0.00,,,0.00,Wunderground v.1.15,2013-05-31 15:32:00,
2013-05-31 08:37:00,64.7,59.1,29.89,SW,218,1.0,3.0,82,0.00,,,0.00,Wunderground v.1.15,2013-05-31 15:37:00,
2013-05-31 08:47:00,64.8,59.2,29.89,South,182,2.0,3.0,82,0.00,,,0.00,Wunderground v.1.15,2013-05-31 15:47:00,
2013-05-31 08:52:00,64.9,59.3,29.89,SSW,208,2.0,4.0,82,0.00,,,0.00,Wunderground v.1.15,2013-05-31 15:52:00,
2013-05-31 08:57:00,65.0,59.4,29.89,SSW,204,2.0,4.0,82,0.00,,,0.00,Wunderground v.1.15,2013-05-31 15:57:00,
2013-05-31 09:07:00,65.2,59.2,29.89,SSW,196,2.0,3.0,81,0.00,,,0.00,Wunderground v.1.15,2013-05-31 16:07:00,
2013-05-31 09:12:00,65.3,59.3,29.89,SSE,149,2.0,2.0,81,0.00,,,0.00,Wunderground v.1.15,2013-05-31 16:12:00,
2013-05-31 09:17:00,65.4,59.4,29.89,SSE,149,1.0,2.0,81,0.00,,,0.00,Wunderground v.1.15,2013-05-31 16:17:00,
2013-05-31 09:22:00,65.6,59.3,29.89,SSE,149,1.0,2.0,80,0.00,,,0.00,Wunderground v.1.15,2013-05-31 16:22:00,
2013-05-31 09:32:00,65.8,59.5,29.89,SSE,149,0.0,0.0,80,0.00,,,0.00,Wunderground v.1.15,2013-05-31 16:32:00,
2013-05-31 09:42:00,66.3,59.6,29.89,ENE,61,1.0,3.0,79,0.00,,,0.00,Wunderground v.1.15,2013-05-31 16:42:00,
2013-05-31 09:52:00,66.5,59.8,29.89,South,191,2.0,3.0,79,0.00,,,0.00,Wunderground v.1.15,2013-05-31 16:52:00,
2013-05-31 09:57:00,66.7,59.6,29.89,SSW,211,1.0,3.0,78,0.00,,,0.00,Wunderground v.1.15,2013-05-31 16:57:00,
2013-05-31 10:02:00,66.7,59.6,29.89,ESE,109,2.0,2.0,78,0.00,,,0.00,Wunderground v.1.15,2013-05-31 17:02:00,
2013-05-31 10:12:00,67.2,59.7,29.89,SW,216,1.0,1.0,77,0.00,,,0.00,Wunderground v.1.15,2013-05-31 17:12:00,
2013-05-31 10:17:00,67.6,59.8,29.89,SW,216,1.0,1.0,76,0.00,,,0.00,Wunderground v.1.15,2013-05-31 17:17:00,
2013-05-31 10:27:00,68.0,60.2,29.88,West,271,2.0,4.0,76,0.00,,,0.00,Wunderground v.1.15,2013-05-31 17:27:00,
2013-05-31 10:37:00,68.3,59.7,29.88,WSW,240,3.0,3.0,74,0.00,,,0.00,Wunderground v.1.15,2013-05-31 17:37:00,
2013-05-31 10:42:00,68.4,59.8,29.88,WNW,288,2.0,2.0,74,0.00,,,0.00,Wunderground v.1.15,2013-05-31 17:42:00,
2013-05-31 10:52:00,69.7,60.7,29.88,ENE,70,1.0,2.0,73,0.00,,,0.00,Wunderground v.1.15,2013-05-31 17:52:00,
2013-05-31 10:57:00,70.2,60.4,29.88,WSW,243,1.0,4.0,71,0.00,,,0.00,Wunderground v.1.15,2013-05-31 17:57:00,
2013-05-31 11:02:00,69.9,60.1,29.87,SW,236,2.0,2.0,71,0.00,,,0.00,Wunderground v.1.15,2013-05-31 18:02:00,
2013-05-31 11:12:00,70.5,60.6,29.87,NW,311,3.0,3.0,71,0.00,,,0.00,Wunderground v.1.15,2013-05-31 18:12:00,
2013-05-31 11:17:00,70.6,60.7,29.87,South,175,3.0,5.0,71,0.00,,,0.00,Wunderground v.1.15,2013-05-31 18:17:00,
2013-05-31 11:27:00,71.0,60.7,29.87,WSW,239,3.0,3.0,70,0.00,,,0.00,Wunderground v.1.15,2013-05-31 18:27:00,
2013-05-31 11:37:00,71.5,60.4,29.87,SW,228,3.0,3.0,68,0.00,,,0.00,Wunderground v.1.15,2013-05-31 18:37:00,
2013-05-31 11:42:00,71.1,60.4,29.87,NE,36,3.0,3.0,69,0.00,,,0.00,Wunderground v.1.15,2013-05-31 18:42:00,
2013-05-31 11:52:00,72.3,60.7,29.87,South,179,3.0,4.0,67,0.00,,,0.00,Wunderground v.1.15,2013-05-31 18:52:00,
2013-05-31 11:57:00,72.5,60.9,29.87,SSE,161,3.0,4.0,67,0.00,,,0.00,Wunderground v.1.15,2013-05-31 18:57:00,
2013-05-31 12:07:00,72.9,60.9,29.86,West,281,4.0,4.0,66,0.00,,,0.00,Wunderground v.1.15,2013-05-31 19:07:00,
2013-05-31 12:12:00,73.4,60.9,29.86,SW,217,4.0,4.0,65,0.00,,,0.00,Wunderground v.1.15,2013-05-31 19:12:00,
2013-05-31 12:22:00,73.7,60.8,29.86,SSW,205,3.0,3.0,64,0.00,,,0.00,Wunderground v.1.15,2013-05-31 19:22:00,
2013-05-31 12:27:00,74.1,60.7,29.86,SW,225,3.0,5.0,63,0.00,,,0.00,Wunderground v.1.15,2013-05-31 19:27:00,
2013-05-31 12:37:00,75.7,60.8,29.85,NNW,332,2.0,3.0,60,0.00,,,0.00,Wunderground v.1.15,2013-05-31 19:37:00,
2013-05-31 12:42:00,76.0,61.1,29.85,NW,315,2.0,3.0,60,0.00,,,0.00,Wunderground v.1.15,2013-05-31 19:42:00,
2013-05-31 12:52:00,76.9,61.5,29.85,West,279,3.0,3.0,59,0.00,,,0.00,Wunderground v.1.15,2013-05-31 19:52:00,
2013-05-31 12:57:00,76.7,60.8,29.85,NNW,334,3.0,3.0,58,0.00,,,0.00,Wunderground v.1.15,2013-05-31 19:57:00,
2013-05-31 13:07:00,78.0,61.5,29.84,WSW,238,2.0,7.0,57,0.00,,,0.00,Wunderground v.1.15,2013-05-31 20:07:00,
2013-05-31 13:12:00,77.9,61.4,29.83,West,271,3.0,3.0,57,0.00,,,0.00,Wunderground v.1.15,2013-05-31 20:12:00,
2013-05-31 13:22:00,78.3,60.8,29.83,SW,226,2.0,3.0,55,0.00,,,0.00,Wunderground v.1.15,2013-05-31 20:22:00,
2013-05-31 13:32:00,78.8,61.3,29.83,WSW,246,4.0,4.0,55,0.00,,,0.00,Wunderground v.1.15,2013-05-31 20:32:00,
2013-05-31 13:37:00,79.0,60.9,29.82,South,176,4.0,4.0,54,0.00,,,0.00,Wunderground v.1.15,2013-05-31 20:37:00,
2013-05-31 13:42:00,79.3,61.2,29.82,South,177,3.0,3.0,54,0.00,,,0.00,Wunderground v.1.15,2013-05-31 20:42:00,
2013-05-31 13:47:00,79.6,61.0,29.82,SW,227,3.0,7.0,53,0.00,,,0.00,Wunderground v.1.15,2013-05-31 20:47:00,
2013-05-31 13:57:00,80.3,61.1,29.82,SSW,196,4.0,4.0,52,0.00,,,0.00,Wunderground v.1.15,2013-05-31 20:57:00,
2013-05-31 14:02:00,80.8,61.5,29.81,SSE,157,3.0,8.0,52,0.00,,,0.00,Wunderground v.1.15,2013-05-31 21:02:00,
2013-05-31 14:12:00,80.9,61.6,29.81,SW,223,6.0,6.0,52,0.00,,,0.00,Wunderground v.1.15,2013-05-31 21:12:00,
2013-05-31 14:17:00,81.1,62.3,29.81,SSW,209,6.0,6.0,53,0.00,,,0.00,Wunderground v.1.15,2013-05-31 21:17:00,
2013-05-31 14:27:00,81.0,62.3,29.81,SW,223,5.0,5.0,53,0.00,,,0.00,Wunderground v.1.15,2013-05-31 21:27:00,
2013-05-31 14:37:00,81.3,62.5,29.81,SSW,205,5.0,5.0,53,0.00,,,0.00,Wunderground v.1.15,2013-05-31 21:37:00,
2013-05-31 14:47:00,81.0,62.3,29.81,SW,232,6.0,6.0,53,0.00,,,0.00,Wunderground v.1.15,2013-05-31 21:47:00,
2013-05-31 14:57:00,81.1,62.3,29.80,SSW,202,6.0,7.0,53,0.00,,,0.00,Wunderground v.1.15,2013-05-31 21:57:00,
2013-05-31 15:07:00,81.6,62.8,29.80,SSE,150,5.0,11.0,53,0.00,,,0.00,Wunderground v.1.15,2013-05-31 22:07:00,
2013-05-31 15:12:00,81.7,62.4,29.80,SW,227,5.0,6.0,52,0.00,,,0.00,Wunderground v.1.15,2013-05-31 22:12:00,
2013-05-31 15:22:00,81.6,62.3,29.79,West,259,5.0,5.0,52,0.00,,,0.00,Wunderground v.1.15,2013-05-31 22:22:00,
2013-05-31 15:27:00,81.6,62.3,29.79,SW,233,6.0,8.0,52,0.00,,,0.00,Wunderground v.1.15,2013-05-31 22:27:00,
2013-05-31 15:37:00,81.7,62.4,29.79,WSW,239,5.0,6.0,52,0.00,,,0.00,Wunderground v.1.15,2013-05-31 22:37:00,
2013-05-31 15:42:00,82.2,62.8,29.78,West,260,4.0,4.0,52,0.00,,,0.00,Wunderground v.1.15,2013-05-31 22:42:00,
2013-05-31 15:47:00,82.5,63.1,29.78,WSW,257,4.0,4.0,52,0.00,,,0.00,Wunderground v.1.15,2013-05-31 22:47:00,
2013-05-31 15:52:00,82.3,62.9,29.78,WNW,296,4.0,4.0,52,0.00,,,0.00,Wunderground v.1.15,2013-05-31 22:52:00,
2013-05-31 16:02:00,81.9,63.1,29.78,WSW,238,5.0,5.0,53,0.00,,,0.00,Wunderground v.1.15,2013-05-31 23:02:00,
2013-05-31 16:07:00,81.8,62.5,29.78,SSW,208,4.0,6.0,52,0.00,,,0.00,Wunderground v.1.15,2013-05-31 23:07:00,
2013-05-31 16:12:00,81.3,62.5,29.78,WSW,237,4.0,4.0,53,0.00,,,0.00,Wunderground v.1.15,2013-05-31 23:12:00,
2013-05-31 16:22:00,80.7,62.5,29.78,WSW,238,5.0,6.0,54,0.00,,,0.00,Wunderground v.1.15,2013-05-31 23:22:00,
2013-05-31 16:32:00,81.1,62.9,29.78,SSW,198,4.0,4.0,54,0.00,,,0.00,Wunderground v.1.15,2013-05-31 23:32:00,
2013-05-31 16:42:00,81.1,62.9,29.78,SW,227,4.0,6.0,54,0.00,,,0.00,Wunderground v.1.15,2013-05-31 23:42:00,
2013-05-31 16:52:00,81.5,63.3,29.78,WSW,253,4.0,7.0,54,0.00,,,0.00,Wunderground v.1.15,2013-05-31 23:52:00,
2013-05-31 16:57:00,81.5,62.7,29.78,WSW,244,4.0,7.0,53,0.00,,,0.00,Wunderground v.1.15,2013-05-31 23:57:00,
2013-05-31 17:07:00,80.7,63.0,29.78,SW,234,5.0,6.0,55,0.00,,,0.00,Wunderground v.1.15,2013-06-01 00:07:00,
2013-05-31 17:12:00,80.1,63.0,29.78,SW,222,5.0,5.0,56,0.00,,,0.00,Wunderground v.1.15,2013-06-01 00:12:00,
2013-05-31 17:17:00,80.0,62.9,29.78,SSW,211,4.0,5.0,56,0.00,,,0.00,Wunderground v.1.15,2013-06-01 00:17:00,
2013-05-31 17:22:00,80.1,63.0,29.78,West,277,4.0,5.0,56,0.00,,,0.00,Wunderground v.1.15,2013-06-01 00:22:00,
2013-05-31 17:32:00,79.6,63.0,29.78,WNW,284,4.0,4.0,57,0.00,,,0.00,Wunderground v.1.15,2013-06-01 00:32:00,
2013-05-31 17:42:00,79.2,62.7,29.78,SW,235,4.0,4.0,57,0.00,,,0.00,Wunderground v.1.15,2013-06-01 00:42:00,
2013-05-31 17:47:00,78.8,62.8,29.78,WSW,253,4.0,4.0,58,0.00,,,0.00,Wunderground v.1.15,2013-06-01 00:47:00,
2013-05-31 17:57:00,78.2,62.7,29.78,NW,308,4.0,4.0,59,0.00,,,0.00,Wunderground v.1.15,2013-06-01 00:57:00,
2013-05-31 18:02:00,77.9,62.4,29.78,West,266,4.0,4.0,59,0.00,,,0.00,Wunderground v.1.15,2013-06-01 01:02:00,
2013-05-31 18:12:00,77.5,62.5,29.78,WSW,241,4.0,5.0,60,0.00,,,0.00,Wunderground v.1.15,2013-06-01 01:12:00,
2013-05-31 18:17:00,77.5,62.5,29.78,SSW,200,4.0,5.0,60,0.00,,,0.00,Wunderground v.1.15,2013-06-01 01:17:00,
2013-05-31 18:22:00,77.5,62.5,29.78,SW,232,3.0,3.0,60,0.00,,,0.00,Wunderground v.1.15,2013-06-01 01:22:00,
2013-05-31 18:32:00,77.0,62.5,29.79,SW,221,4.0,4.0,61,0.00,,,0.00,Wunderground v.1.15,2013-06-01 01:32:00,
2013-05-31 18:42:00,76.3,62.3,29.79,WSW,240,4.0,4.0,62,0.00,,,0.00,Wunderground v.1.15,2013-06-01 01:42:00,
2013-05-31 18:47:00,76.4,62.4,29.80,WSW,244,4.0,4.0,62,0.00,,,0.00,Wunderground v.1.15,2013-06-01 01:47:00,
2013-05-31 18:57:00,75.8,61.8,29.80,WNW,286,4.0,4.0,62,0.00,,,0.00,Wunderground v.1.15,2013-06-01 01:57:00,
2013-05-31 19:07:00,75.3,61.8,29.80,WSW,238,3.0,4.0,63,0.00,,,0.00,Wunderground v.1.15,2013-06-01 02:07:00,
2013-05-31 19:12:00,74.9,61.9,29.80,West,271,4.0,4.0,64,0.00,,,0.00,Wunderground v.1.15,2013-06-01 02:12:00,
2013-05-31 19:17:00,74.6,61.6,29.80,WSW,246,3.0,5.0,64,0.00,,,0.00,Wunderground v.1.15,2013-06-01 02:17:00,
2013-05-31 19:27:00,74.2,61.7,29.81,West,261,3.0,3.0,65,0.00,,,0.00,Wunderground v.1.15,2013-06-01 02:27:00,
2013-05-31 19:37:00,73.5,61.9,29.81,WSW,244,3.0,3.0,67,0.00,,,0.00,Wunderground v.1.15,2013-06-01 02:37:00,
2013-05-31 19:42:00,73.3,61.7,29.81,SW,229,3.0,3.0,67,0.00,,,0.00,Wunderground v.1.15,2013-06-01 02:42:00,
2013-05-31 19:52:00,72.6,61.8,29.81,WSW,252,2.0,2.0,69,0.00,,,0.00,Wunderground v.1.15,2013-06-01 02:52:00,
2013-05-31 20:02:00,72.1,61.8,29.82,West,269,2.0,3.0,70,0.00,,,0.00,Wunderground v.1.15,2013-06-01 03:02:00,
2013-05-31 20:07:00,71.9,61.6,29.82,SW,216,2.0,3.0,70,0.00,,,0.00,Wunderground v.1.15,2013-06-01 03:07:00,
2013-05-31 20:17:00,71.0,61.9,29.82,SSE,165,3.0,4.0,73,0.00,,,0.00,Wunderground v.1.15,2013-06-01 03:17:00,
2013-05-31 20:22:00,70.5,61.4,29.82,South,173,3.0,3.0,73,0.00,,,0.00,Wunderground v.1.15,2013-06-01 03:22:00,
2013-05-31 20:32:00,69.8,61.1,29.83,SSW,204,2.0,5.0,74,0.00,,,0.00,Wunderground v.1.15,2013-06-01 03:32:00,
2013-05-31 20:42:00,69.0,61.1,29.83,SE,138,3.0,3.0,76,0.00,,,0.00,Wunderground v.1.15,2013-06-01 03:42:00,
2013-05-31 20:52:00,68.5,61.0,29.83,SSE,161,2.0,2.0,77,0.00,,,0.00,Wunderground v.1.15,2013-06-01 03:52:00,
2013-05-31 20:57:00,68.3,60.8,29.83,South,183,3.0,4.0,77,0.00,,,0.00,Wunderground v.1.15,2013-06-01 03:57:00,
2013-05-31 21:02:00,68.1,61.0,29.83,South,188,2.0,3.0,78,0.00,,,0.00,Wunderground v.1.15,2013-06-01 04:02:00,
2013-05-31 21:07:00,67.9,61.1,29.84,SSE,162,2.0,3.0,79,0.00,,,0.00,Wunderground v.1.15,2013-06-01 04:07:00,
2013-05-31 21:12:00,67.7,61.0,29.84,SSE,154,2.0,2.0,79,0.00,,,0.00,Wunderground v.1.15,2013-06-01 04:12:00,
2013-05-31 21:22:00,67.3,60.9,29.84,South,170,2.0,2.0,80,0.00,,,0.00,Wunderground v.1.15,2013-06-01 04:22:00,
2013-05-31 21:27:00,67.2,61.2,29.84,SSE,167,1.0,3.0,81,0.00,,,0.00,Wunderground v.1.15,2013-06-01 04:27:00,
2013-05-31 21:37:00,66.9,60.9,29.85,ESE,123,1.0,2.0,81,0.00,,,0.00,Wunderground v.1.15,2013-06-01 04:37:00,
2013-05-31 21:42:00,66.8,61.1,29.85,SSE,167,1.0,3.0,82,0.00,,,0.00,Wunderground v.1.15,2013-06-01 04:42:00,
2013-05-31 21:47:00,66.6,60.9,29.85,SSE,162,2.0,6.0,82,0.00,,,0.00,Wunderground v.1.15,2013-06-01 04:47:00,
2013-05-31 21:52:00,66.4,60.7,29.85,South,187,2.0,2.0,82,0.00,,,0.00,Wunderground v.1.15,2013-06-01 04:52:00,
2013-05-31 22:02:00,66.2,60.5,29.85,South,171,1.0,1.0,82,0.00,,,0.00,Wunderground v.1.15,2013-06-01 05:02:00,
2013-05-31 22:07:00,66.1,60.8,29.85,SSE,161,1.0,1.0,83,0.00,,,0.00,Wunderground v.1.15,2013-06-01 05:07:00,
2013-05-31 22:17:00,65.9,60.6,29.85,SSE,151,1.0,2.0,83,0.00,,,0.00,Wunderground v.1.15,2013-06-01 05:17:00,
2013-05-31 22:22:00,65.8,60.5,29.85,SSE,155,1.0,1.0,83,0.00,,,0.00,Wunderground v.1.15,2013-06-01 05:22:00,
2013-05-31 22:27:00,65.7,60.4,29.85,SE,131,2.0,3.0,83,0.00,,,0.00,Wunderground v.1.15,2013-06-01 05:27:00,
2013-05-31 22:37:00,65.6,60.6,29.85,South,186,1.0,1.0,84,0.00,,,0.00,Wunderground v.1.15,2013-06-01 05:37:00,
2013-05-31 22:42:00,65.6,60.6,29.85,ESE,114,1.0,1.0,84,0.00,,,0.00,Wunderground v.1.15,2013-06-01 05:42:00,
2013-05-31 22:47:00,65.5,60.5,29.85,SSE,159,0.0,3.0,84,0.00,,,0.00,Wunderground v.1.15,2013-06-01 05:47:00,
2013-05-31 22:52:00,65.4,60.8,29.85,South,169,1.0,1.0,85,0.00,,,0.00,Wunderground v.1.15,2013-06-01 05:52:00,
2013-05-31 22:57:00,65.3,60.7,29.85,South,170,2.0,2.0,85,0.00,,,0.00,Wunderground v.1.15,2013-06-01 05:57:00,
2013-05-31 23:07:00,65.1,60.5,29.85,South,170,1.0,2.0,85,0.00,,,0.00,Wunderground v.1.15,2013-06-01 06:07:00,
2013-05-31 23:12:00,65.0,60.7,29.84,South,170,1.0,3.0,86,0.00,,,0.00,Wunderground v.1.15,2013-06-01 06:12:00,
2013-05-31 23:22:00,64.9,60.6,29.84,South,170,2.0,2.0,86,0.00,,,0.00,Wunderground v.1.15,2013-06-01 06:22:00,
2013-05-31 23:32:00,64.8,60.5,29.84,South,170,1.0,1.0,86,0.00,,,0.00,Wunderground v.1.15,2013-06-01 06:32:00,
2013-05-31 23:37:00,64.7,60.4,29.84,South,170,1.0,1.0,86,0.00,,,0.00,Wunderground v.1.15,2013-06-01 06:37:00,
2013-05-31 23:47:00,64.7,60.4,29.84,South,169,1.0,1.0,86,0.00,,,0.00,Wunderground v.1.15,2013-06-01 06:47:00,
2013-05-31 23:52:00,64.6,60.6,29.84,South,169,1.0,2.0,87,0.00,,,0.00,Wunderground v.1.15,2013-06-01 06:52:00,
2013-05-31 23:57:00,64.5,60.5,29.84,South,169,2.0,2.0,87,0.00,,,0.00,Wunderground v.1.15,2013-06-01 06:57:00,